This demonstration page uses our WeatherBlox Daily Observations layout. Learn more.

Left ArrowRight Arrow

34.74481, -87.66753

Hourly Observations for December 13, 2018

Temp ( °F °C ) Dew Point ( °F °C ) Humidity (%) Winds ( mph kmh ) Pressure ( in mb ) Visibility ( mi km ) Precip ( " mm )
12:53 am 00:53 Cloudy 47 8.3 39 3.9 74 74 SE 8 13 30.09 1019 10 16 0.00 0.00
1:53 am 01:53 Cloudy 48 8.9 40 4.4 74 74 SSE 6 9 30.10 1019 10 16 0.00 0.00
2:53 am 02:53 Mostly Clear 47 8.3 40 4.4 77 77 SE 6 9 30.09 1019 10 16 0.00 0.00
4:53 am 04:53 Mostly Clear 47 8.3 40 4.4 77 77 SE 6 9 30.09 1019 10 16 0.00 0.00
5:53 am 05:53 Cloudy 47 8.3 41 5 80 80 SE 7 11 30.08 1019 10 16 0.00 0.00
6:53 am 06:53 Mostly Cloudy 49 9.4 42 5.6 77 77 SSE 10 17 30.09 1019 10 16 0.00 0.00
7:53 am 07:53 Partly Cloudy 49 9.4 42 5.6 77 77 SE 10 17 30.09 1019 10 16 0.00 0.00
8:53 am 08:53 Sunny 53 11.7 43 6.1 69 69 SSE 7 11 30.12 1020 10 16 0.00 0.00
9:53 am 09:53 Partly Cloudy 55 12.8 44 6.7 67 67 SSE 14 22 30.12 1020 10 16 0.00 0.00
10:53 am 10:53 Mostly Cloudy 57 13.9 45 7.2 64 64 SSE 13 20 30.10 1019 10 16 0.00 0.00
11:53 am 11:53 Mostly Cloudy 59 15 45 7.2 60 60 S 16 26 30.07 1018 10 16 0.00 0.00
12:53 pm 12:53 Partly Cloudy 61 16.1 45 7.2 56 56 SE 14 22 30.03 1017 10 16 0.00 0.00
1:53 pm 13:53 Cloudy 60 15.6 44 6.7 56 56 SSE 16 26 30.03 1017 10 16 0.00 0.00
2:53 pm 14:53 Cloudy 60 15.6 44 6.7 56 56 SE 10 17 30.03 1017 10 16 0.00 0.00
3:53 pm 15:53 Cloudy 58 14.4 44 6.7 60 60 SE 8 13 30.04 1017 10 16 0.00 0.00
4:53 pm 16:53 Cloudy 58 14.4 43 6.1 58 58 SE 8 13 30.03 1017 10 16 0.00 0.00
5:53 pm 17:53 Cloudy 56 13.3 43 6.1 62 62 E 9 15 30.04 1017 10 16 0.00 0.00
6:53 pm 18:53 Cloudy 56 13.3 40 4.4 55 55 ESE 12 19 30.03 1017 10 16 0.00 0.00
7:53 pm 19:53 Cloudy 54 12.2 40 4.4 59 59 ESE 13 20 30.01 1016 10 16 0.00 0.00
8:53 pm 20:53 Cloudy 52 11.1 41 5 66 66 ESE 10 17 30.01 1016 10 16 0.00 0.03
9:53 pm 21:53 Cloudy 52 11.1 42 5.6 69 69 ESE 10 17 29.98 1015 10 16 0.00 0.00
10:53 pm 22:53 Cloudy with Light Rain 53 11.7 43 6.1 69 69 ESE 14 22 29.98 1015 10 16 0.00 0.03
11:53 pm 23:53 Cloudy 52 11.1 44 6.7 75 75 ESE 8 13 29.98 1015 10 16 0.00 0.03

Powered by AerisWeather